Regional Weather Roundup
Issued by NWS

Home | Current Version | Previous Version | Text Only | Print | Product List | Glossary On
Versions: 1 2 3 4 5 6 7 8 9 10 11 12 13 14 15 16 17 18 19 20 21 22 23 24 25 26 27 28 29 30 31 32 33 34 35 36 37 38 39 40 41 42 43 44 45 46 47 48 49 50
000
ASUS44 KOUN 200300
RWROK

WEATHER ROUNDUP FOR OKLAHOMA
NATIONAL WEATHER SERVICE NORMAN OK
1000 PM CDT TUE SEP 19 2017

NOTE: "FAIR" INDICATES FEW OR NO CLOUDS BELOW 12,000 FEET WITH NO
      SIGNIFICANT WEATHER AND/OR OBSTRUCTIONS TO VISIBILITY.

OKZ001>007-009>012-014-015-017-200400-
NORTHWEST OKLAHOMA AND THE PANHANDLE

CITY           SKY/WX    TMP DP  RH WIND       PRES   REMARKS
GAGE           CLOUDY    79  61  53 S23G31    29.68R
GUYMON         CLOUDY    71  44  37 S10       29.67R
$$

OKZ016-021>023-033>039-044-045-200400-
SOUTHWEST OKLAHOMA

CITY           SKY/WX    TMP DP  RH WIND       PRES   REMARKS
LAWTON/REGL    CLOUDY    79  62  56 S14G28    29.76R
LAWTON/FT SILL CLOUDY    78  64  60 S17G23    29.76R
FREDERICK      CLOUDY    77  61  57 S16       29.75R
CLINTON        CLEAR     76  59  55 S18       29.74R
HOBART         CLEAR     76  62  62 S23G30    29.76R
ALTUS AFB      PTCLDY    77  59  54 SE22G32   29.76R
$$

OKZ018>020-024>031-200400-
CENTRAL OKLAHOMA

CITY           SKY/WX    TMP DP  RH WIND       PRES   REMARKS
OKLAHOMA CITY  CLOUDY    80  69  69 S13       29.77R
OKC/WILEY POST PTCLDY    83  71  67 S17G25    29.75R
OKC/TINKER AFB CLOUDY    82  69  66 S15       29.77R
STILLWATER     CLEAR     83  69  62 S12       29.74R
GUTHRIE        CLOUDY    84  69  60 S16G24    29.73R
$$

OKZ008-013-054>072-200400-
NORTHEAST OKLAHOMA

CITY           SKY/WX    TMP DP  RH WIND       PRES   REMARKS
TULSA          PTCLDY    84  70  62 S17G26    29.76R
TULSA/JONES    CLEAR     83  69  62 S10       29.77R
PONCA CITY     CLEAR     84  70  62 S18G30    29.71R
BARTLESVILLE   CLEAR     80  71  74 S7        29.77R
MUSKOGEE       CLEAR     77  70  79 SE7       29.82R
$$

OKZ032-040>043-046>053-073>077-200400-
SOUTH CENTRAL/SOUTHEAST OKLAHOMA

CITY           SKY/WX    TMP DP  RH WIND       PRES   REMARKS
MCALESTER      MOCLDY    83  70  64 SE7       29.83R
$$





USA.gov is the U.S. government's official web portal to all federal, state and local government web resources and services.